SCP
0 0 0 0 0 0 0 0 0 0 0 0 0 0 -0 0 0 0 0 0 -0 -0 -0 -0 -0 -0 -0 -0 -0 -0 -0 -0 -0 -0 -0 -0 -0 -0 -0 -0 -0 -0 -0 -0 -0 -0 -0 -0 -0
0 0 0 0 0 0 0 0 0 0 0 0 0 0 0 0 0 0 0 0 -0 -0 -0 -0 -0 -0 -0 -0 -0 -0 -0 -0 -0 -0 -0 -0 -0 -0 -0 -0 -0 -0 -0 -0 -0 -0 -0 -0 -0
0 0 0 0 0 0 0 0 0 0 0 0 0 0 0 0 0 -0 0 -0 -0 -0 -0 -0 -0 -0 -0 -0 -0 -0 -0 -0 -0 -0 -0 -0 -0 -0 -0 -0 -0 -0 0 0 0 0 0 0 0
0 0 0 0 0 0 0 0 0 0 0 0 0 0 0 0 0 0 -0 0 -0 -0 -0 -0 -0 -0 -0 -0 -0 -0 -0 -0 -0 -0 -0 -0 -0 0 0 0 0 0 0 0 0 0 0 0 0
0 0 0 0 0 0 0 0 0 0 0 0 0 0 0 0 0 -0 -0 0 0 0 0 0 -0 -0 -0 -0 -0 -0 -0 -0 -0 -0 -0 -0 0 0 0 0 0 0 0 0 0 0 0 0 0
0 0 0 0 0 0 0 0 0 0 0 0 0 0 0 0 0 0 0 0 0 0 0 0 0 0 0 -0 -0 -0 -0 -0 -0 -0 0 0 0 0 0 0 0 0 0 0 0 0 0 0 0
0 0 0 0 0 0 0 0 0 0 0 0 0 0 0 0 0 0 0 0 0 0 0 0 0 0 0 0 0 0 0 0 0 0 0 0 0 0 0 0 0 0 0 0 0 0 0 0 0
0 0 0 0 0 0 0 0 0 0 0 0 0 0 0 0 0 0 0 0 0 0 0 0 0 0 0 0 0 0 0 0 0 0 0 0 0 0 0 0 0 0 0 0 0 0 0 0 0
0 0 0 0 0 0 0 0 0 0 0 0 0 0 0 0 0 0 0 0 0 0 0 0 0 0 0 0 0 0 0 0 0 0 0 0 0 0 0 0 0 0 0 0 0 0 0 0 0
0 0 0 0 0 0 0 0 0 0 0 0 0 0 0 0 0 0 0 0 0 0 0 0 0 0 0 0 0 0 0 0 0 0 0 0 0 0 0 0 0 0 0 0 0 0 0 0 0
0 0 0 0 0 0 0 0 0 0 0 0 0 0 0 0 0 0 0 0 0 0 0 0 0 0 0 0 0 0 0 0 0 0 0 0 0 0 0 0 0 0 0 0 0 0 0 0 0
0 0 0 0 0 0 0 0 0 0 0 0 0 0 0 0 0 0 0 0 0 0 0 0 0 0 0 0 0 0 0 0 0 0 0 0 0 0 0 0 0 0 0 0 0 0 0 0 0
0 0 0 0 0 0 0 0 0 0 0 0 0 0 0 0 0 0 0 0 0 0 0 0 0 0 0 0 0 0 0 0 0 0 0 0 0 0 0 0 0 0 0 0 0 0 0 0 0
0 0 0 0 0 0 0 0 0 0 0 0 0 0 0 0 0 0 0 0 0 0 0 0 0 0 0 0 0 0 0 0 0 0 0 0 0 0 0 0 0 0 0 0 0 0 0 0 0
0 0 0 0 0 0 0 0 0 0 0 0 0 0 0 0 0 0 0 0 0 0 0 0 0 0 0 0 0 0 0 0 0 0 0 0 0 0 0 0 0 0 0 0 0 0 0 0 0
0 0 0 0 0 0 0 0 0 0 0 0 0 0 0 0 0 0 0 0 0 0 0 0 0 0 0 0 0 0 0 0 0 0 0 0 0 0 0 0 0 0 0 0 0 0 0 0 0
0 0 0 0 0 0 0 0 -0 0 0 0 0 0 0 0 0 0 0 0 0 0 0 0 0 0 0 0 0 0 0 0 0 0 0 0 0 0 0 0 0 0 0 0 0 0 0 0 0
0 0 0 0 0 0 0 0 0 0 0 0 0 0 0 0 0 0 0 0 0 0 0 0 0 0 0 0 0 0 0 0 0 0 0 0 0 0 0 0 0 0 0 0 0 0 0 0 0
0 0 0 0 0 0 0 0 0 0 0 0 0 0 0 0 0 0 0 0 0 0 0 0 0 0 0 0 0 0 0 0 0 0 0 0 0 0 0 0 0 0 0 0 0 0 0 0 0
0 0 0 -0 0 0 0 -0 0 0 0 0 0 0 0 0 0 0 0 0 0 0 0 0 0 0 0 0 0 0 0 0 0 0 0 0 0 0 0 0 0 0 0 0 0 0 0 0 0
0 0 0 0 0 0 0 -0 -0 0 0 0 0 0 0 0 0 0 0 0 0 0 0 0 0 0 0 0 0 0 0 0 0 0 0 0 0 0 0 0 0 0 0 0 0 0 0 0 0
0 0 0 0 0 0 -0 -0 -0 -0 0 0 0 0 0 0 0 0 0 0 0 0 0 0 0 0 0 0 0 0 0 0 0 0 0 0 0 0 0 0 0 0 0 0 0 0 0 0 0
-0 -0 -0 0 0 0 0 0 -0 -0 -0 0 0 0 0 0 0 0 0 0 0 0 0 0 0 0 0 0 0 0 0 0 0 0 0 0 0 0 0 0 0 0 0 0 0 0 0 0 0
0 0 0 -0 0 0 0 0 -0 -0 -0 -0 0 0 0 0 0 0 0 0 0 0 0 0 0 0 0 0 0 0 0 0 0 0 0 0 0 0 0 0 0 0 0 0 0 0 0 0 0
0 0 -0 -0 0 0 -0 0 0 0 0 0 0 0 0 0 0 0 0 0 0 0 0 0 0 0 0 0 0 0 0 0 0 0 0 0 0 0 0 0 0 0 0 0 0 0 0 0 0
0 0 0 0 0 0 0 -0 0 0 0 0 0 0 0 -0 -0 0 0 0 0 0 0 0 0 0 0 0 0 0 0 0 0 0 0 0 0 0 0 0 0 0 0 0 0 0 0 0 0
0 0 0 0 0 0 0 0 0 0 0 0 0 0 0 0 0 0 0 0 0 0 0 0 0 0 0 0 0 0 0 0 0 0 0 0 0 0 0 0 0 0 0 0 0 0 0 0 0
0 0 0 0 0 0 0 0 0 0 0 0 0 0 0 0 0 0 0 0 0 0 0 0 0 0 0 0 0 0 0 0 0 0 0 0 0 0 0 0 0 0 0 0 0 0 0 0 0
0 0 0 0 0 0 0 0 0 0 0 0 0 0 0 0 0 0 0 0 0 0 0 0 0 0 0 0 0 0 0 0 0 0 0 0 0 0 0 0 0 0 0 0 0 0 0 0 0
0 0 0 0 0 0 0 0 0 0 0 -0 0 0 0 0 0 0 0 0 0 0 0 0 0 0 0 0 0 0 0 0 0 0 0 0 0 0 0 0 0 0 0 0 0 0 0 0 0
Wind_Speed_500mb
22 18 12 6 4 8 8 13 6 5 1 2 9 11 19 5 10 8 33 41 48 64 66 60 54 51 47 45 43 41 38 35 32 24 17 11 8 7 7 7 15 17 19 19 21 16 13 12 12
15 14 10 2 6 2 11 10 12 13 8 35 21 16 6 4 11 26 57 38 46 62 67 62 56 52 48 45 42 38 36 33 28 20 14 11 9 9 11 16 18 17 20 21 21 22 19 11 7
10 16 10 7 7 12 10 10 15 6 36 7 8 8 6 12 15 60 43 46 51 60 65 62 57 53 49 46 43 40 36 32 24 17 14 12 10 10 12 16 17 18 20 21 22 21 20 20 16
10 9 4 7 17 13 12 7 3 9 9 13 19 10 8 8 32 37 52 46 53 59 63 62 58 55 51 48 46 42 39 33 22 18 15 12 12 13 14 15 16 15 16 17 18 17 16 14 14
15 5 2 6 14 11 10 15 20 7 10 15 18 11 6 23 19 36 45 44 49 60 62 60 58 56 53 49 47 44 39 33 24 19 15 13 14 15 16 15 14 12 12 12 13 14 13 13 10
7 4 2 12 11 9 12 35 12 8 10 17 13 21 15 33 23 36 39 43 43 58 64 61 57 55 53 50 47 45 39 32 26 22 18 16 14 15 16 12 10 8 8 8 8 10 11 11 11
7 7 9 7 9 9 16 17 14 18 11 13 29 12 11 34 32 33 40 42 46 56 62 63 59 54 53 51 47 43 39 34 29 25 21 18 15 14 14 12 10 8 6 4 4 6 8 10 10
5 6 5 10 7 14 7 13 15 24 15 16 28 15 11 42 42 40 43 41 44 57 58 62 61 58 56 52 48 44 40 35 30 29 24 20 17 16 14 11 10 9 6 2 1 4 8 11 12
6 2 8 9 9 13 5 5 7 8 15 18 20 12 16 50 48 52 51 46 48 58 59 61 62 61 57 54 50 46 41 37 34 31 26 23 21 18 15 13 12 11 7 3 5 11 17 21 21
9 8 14 9 5 9 13 7 8 6 8 10 19 23 27 56 58 64 65 62 58 61 62 61 62 60 57 56 53 48 46 43 38 33 29 26 23 20 18 15 17 16 10 12 15 21 26 28 26
11 12 8 10 13 10 10 8 8 6 9 20 29 34 51 62 64 66 68 65 65 62 61 62 61 59 59 60 56 51 48 45 41 36 32 29 28 26 25 26 26 25 21 19 24 27 29 28 29
6 23 25 9 10 9 8 10 10 15 11 18 27 39 59 70 70 71 69 67 66 66 62 59 58 62 62 59 57 53 51 47 44 40 36 34 30 28 27 32 33 25 22 29 32 32 32 29 23
12 9 20 20 20 20 20 20 13 27 36 15 27 48 66 73 70 69 65 64 63 66 62 59 55 57 64 60 57 54 52 48 44 42 38 35 31 32 30 26 28 27 29 33 36 35 31 24 23
6 13 21 22 23 18 9 10 11 33 43 35 24 52 68 72 72 72 77 73 71 64 64 61 57 57 57 57 54 52 48 46 46 43 40 37 34 32 29 29 28 30 33 36 38 34 25 27 31
12 12 12 17 16 13 11 16 22 63 29 39 53 47 64 71 73 75 75 78 73 71 62 66 60 53 53 53 50 46 43 44 43 43 43 38 37 36 37 35 33 34 37 37 33 29 30 34 32
8 3 8 7 13 13 20 36 15 38 47 59 53 67 59 79 82 77 78 81 79 74 72 69 65 60 55 60 57 54 53 51 43 43 42 40 36 35 35 35 36 37 36 30 29 32 34 33 29
8 10 14 12 15 5 12 12 9 28 28 48 64 66 64 70 77 86 84 81 78 79 77 77 76 68 60 61 65 62 58 59 54 46 41 40 39 37 36 37 36 34 32 31 32 33 31 28 27
12 12 11 11 2 6 15 19 28 30 15 28 38 51 64 74 79 82 81 79 79 80 79 80 84 78 67 69 69 66 62 64 57 49 47 43 41 38 37 37 35 33 33 31 31 30 29 27 25
11 12 17 8 9 8 16 28 27 43 39 34 42 45 57 70 70 73 73 80 81 84 85 87 94 90 78 77 77 73 71 67 68 53 46 46 43 39 38 36 34 31 31 31 29 26 26 27 26
19 26 29 18 14 9 17 39 29 24 33 47 54 62 57 59 63 66 74 82 84 84 79 82 90 96 86 79 77 75 72 66 68 59 48 45 43 40 38 35 33 31 30 28 26 25 23 25 24
24 17 16 24 13 15 7 45 30 21 36 48 66 70 73 72 68 63 65 80 86 88 89 88 83 93 91 84 83 77 83 72 69 59 48 46 46 43 38 35 33 31 28 25 24 24 24 22 21
16 11 15 19 4 9 4 23 16 4 28 22 47 60 83 83 89 89 78 74 84 90 90 86 87 90 95 92 90 77 78 85 70 59 55 47 47 43 38 36 33 29 27 24 23 24 22 19 18
11 15 10 5 9 6 17 5 11 5 20 19 19 55 74 92 100 96 87 81 81 80 82 85 87 93 98 97 89 81 76 80 68 59 56 49 47 43 39 36 32 28 25 23 21 20 18 17 15
9 12 20 7 6 10 33 19 46 15 17 14 14 54 67 74 75 83 91 88 89 85 80 82 86 92 96 99 92 90 80 79 67 65 59 52 48 44 40 35 32 28 24 21 18 16 15 15 16
15 9 8 6 8 14 5 18 41 16 27 22 29 52 66 55 47 62 70 79 88 92 90 86 89 95 98 99 94 88 78 74 68 67 55 57 52 45 40 35 31 26 23 19 16 14 13 13 15
24 6 7 13 7 10 6 13 10 14 40 55 50 55 55 61 57 48 59 66 77 88 96 92 92 95 98 93 91 81 77 73 66 63 55 52 43 41 39 36 31 25 20 16 15 13 13 13 14
9 10 8 11 16 13 10 12 6 34 43 52 62 71 70 66 52 46 44 56 66 78 92 95 93 91 93 90 84 80 75 72 61 59 48 47 45 43 40 34 28 22 18 16 14 12 12 13 15
5 20 12 6 8 9 7 8 6 28 38 43 44 59 75 69 49 33 29 35 46 61 74 78 77 79 83 81 76 72 71 69 60 57 55 50 46 44 38 31 26 21 18 14 12 11 11 12 13
28 9 10 11 10 9 6 5 7 14 25 35 40 55 65 76 55 30 15 17 28 40 52 62 67 69 72 74 73 71 72 66 59 55 54 49 46 41 36 30 25 20 16 12 10 9 9 10 12
7 15 8 7 16 14 18 16 10 19 25 31 51 58 72 74 57 41 27 19 23 34 45 54 58 62 66 67 68 68 66 62 60 57 53 48 44 40 34 29 25 20 15 11 9 8 7 10 13
Wind_Direction_500mb
277 255 236 251 44 66 263 259 257 277 255 141 151 158 168 123 158 201 149 158 170 169 172 172 173 173 171 169 167 166 166 166 165 164 161 150 135 125 115 127 124 99 86 82 79 90 139 146 155
274 220 191 163 113 147 264 248 245 226 152 123 100 102 97 146 139 146 150 159 170 171 173 173 176 176 174 172 171 170 170 171 171 167 161 145 138 128 108 106 111 83 80 73 71 73 83 108 138
241 187 158 147 177 193 228 226 246 221 163 169 101 84 115 159 157 154 161 155 169 175 176 176 177 178 177 175 174 174 175 174 173 170 165 155 147 138 124 113 101 84 76 71 68 67 67 66 66
180 177 112 123 231 253 215 252 222 153 190 206 146 91 123 171 158 160 161 161 170 177 178 179 181 180 181 180 179 179 178 180 179 178 172 162 150 147 135 122 110 101 90 80 71 66 63 61 55
183 170 129 232 247 254 251 271 188 240 180 161 158 179 148 161 161 166 169 168 173 178 179 182 185 183 183 183 182 181 183 183 183 184 179 169 155 155 150 143 137 126 102 81 70 67 62 52 46
165 103 93 233 242 255 251 243 222 215 211 149 124 141 146 169 174 168 173 172 178 180 180 183 187 186 185 185 185 186 185 187 187 188 184 174 168 165 165 157 151 130 104 87 66 51 43 38 33
138 109 228 251 259 268 228 226 188 197 201 206 155 133 181 186 182 179 174 176 179 185 184 184 186 186 187 188 189 190 189 189 192 192 188 182 180 170 172 170 165 159 146 109 55 28 9 359 356
213 104 262 244 220 262 267 188 204 179 208 172 164 172 197 185 178 180 176 176 181 186 190 189 188 187 188 191 193 194 193 195 197 196 194 188 186 178 180 183 180 184 184 192 308 350 343 325 314
165 41 248 253 172 255 296 214 202 187 170 181 195 189 204 186 177 178 177 178 182 189 193 193 191 190 192 191 191 191 195 199 199 201 199 197 194 191 189 192 198 201 206 238 291 314 315 308 299
178 182 226 224 234 271 303 286 201 183 169 208 196 197 179 186 181 182 183 184 186 190 193 196 196 196 193 193 194 196 198 201 205 205 205 203 202 203 204 205 199 210 236 279 285 296 302 300 291
197 219 216 264 261 272 285 297 305 183 244 217 197 187 177 185 187 191 191 195 193 190 191 193 199 201 199 199 198 201 203 206 206 208 208 208 211 216 220 216 210 216 232 260 278 289 291 290 290
230 251 243 269 267 282 272 293 298 228 236 250 226 201 186 188 194 197 199 199 199 197 197 197 198 204 205 206 206 206 207 209 210 211 212 214 219 228 231 217 217 230 247 272 283 284 288 290 289
218 254 266 259 272 261 271 265 256 269 250 262 211 193 193 193 200 205 208 206 204 202 201 203 200 208 210 209 211 212 212 211 213 214 217 219 227 229 229 217 223 237 259 271 277 281 283 277 282
289 274 268 277 268 257 239 257 193 255 253 234 203 202 199 201 204 206 209 209 209 208 207 204 204 209 212 212 214 216 215 216 215 216 219 224 226 222 222 237 243 255 263 270 276 277 271 279 287
289 297 295 237 239 233 215 273 225 249 239 228 226 218 214 215 211 214 215 213 213 212 212 209 209 207 209 213 214 211 217 217 221 223 221 223 217 222 230 240 247 256 265 269 268 266 275 284 287
312 243 310 286 192 235 160 260 253 256 240 243 236 231 226 222 221 220 220 218 216 216 214 212 212 212 209 214 213 217 216 220 223 226 224 219 218 226 236 241 251 259 261 257 257 269 281 286 287
343 267 242 302 190 121 203 278 253 255 230 239 245 240 235 232 229 225 222 220 221 218 219 213 215 218 214 213 215 216 218 222 216 222 219 215 222 228 234 244 249 252 251 253 264 277 280 281 286
242 250 260 254 345 197 246 247 274 262 261 255 261 254 240 234 231 228 223 221 222 224 222 221 220 220 217 213 212 216 217 218 213 213 217 220 225 231 239 242 244 245 250 259 271 277 279 283 288
324 282 268 315 2 302 258 271 257 273 275 267 265 256 247 237 235 229 225 223 223 224 225 224 220 219 216 211 211 212 215 216 214 206 212 221 225 233 238 244 244 244 252 263 268 270 277 284 292
287 290 289 266 253 228 274 272 261 261 260 252 256 255 253 247 241 235 228 226 224 224 222 221 221 221 217 214 213 216 217 221 205 203 211 230 230 234 239 240 241 248 255 258 262 267 273 280 287
292 270 278 262 281 242 303 283 261 244 246 248 254 257 254 247 246 244 238 228 226 226 227 224 220 217 216 212 211 217 210 208 200 205 212 226 230 235 236 237 242 248 251 254 261 268 273 279 287
292 296 283 295 291 258 177 283 235 254 251 227 247 242 247 247 249 252 247 233 225 226 226 226 219 216 215 214 213 216 214 206 204 216 216 226 228 232 232 237 241 242 246 250 259 270 276 281 286
239 289 244 318 302 2 235 278 276 134 255 253 251 248 248 252 248 247 243 235 227 222 222 221 218 214 215 213 217 224 218 212 211 209 216 220 224 228 229 233 234 234 238 248 257 266 276 283 284
319 333 288 181 176 231 244 200 276 254 260 252 248 258 264 262 260 255 251 243 229 223 219 217 217 215 214 213 215 216 220 213 210 216 211 221 222 224 225 225 225 228 236 245 252 262 271 280 290
33 318 296 242 207 242 265 182 248 302 326 323 318 309 298 293 285 265 251 240 231 221 217 215 214 213 212 213 213 214 215 216 217 215 219 223 219 220 220 219 221 226 232 240 248 256 265 278 284
297 270 279 312 315 294 28 213 233 13 12 2 354 333 324 314 300 282 258 245 234 223 215 214 213 212 210 210 215 216 213 212 213 218 222 215 218 217 215 216 218 221 226 233 243 254 266 274 281
331 286 290 279 250 258 210 260 301 12 15 3 3 5 344 336 327 295 273 247 233 222 213 212 212 211 210 213 216 213 211 212 211 212 213 210 209 210 211 213 214 215 220 229 243 257 273 285 295
299 333 307 238 275 265 286 297 2 14 5 359 358 357 355 349 338 322 279 250 233 219 211 210 212 212 209 211 212 211 206 205 206 204 207 207 206 205 207 208 208 210 216 226 239 253 267 283 299
321 342 307 304 262 288 272 252 255 48 16 5 348 348 355 1 343 336 309 248 222 212 208 208 208 207 205 206 207 206 202 199 199 206 205 203 200 201 202 202 203 205 210 217 230 247 268 289 306
347 38 38 30 321 297 280 283 64 40 7 351 340 348 353 5 356 337 320 285 242 224 216 211 208 205 205 203 202 200 197 197 200 199 196 196 196 197 197 197 197 198 200 205 218 239 270 302 319
Wind_Speed_850mb
22 18 12 6 4 8 8 13 6 5 1 2 9 11 19 5 10 8 33 41 48 64 66 60 54 51 47 45 43 41 38 35 32 24 17 11 8 7 7 7 15 17 19 19 21 16 13 12 12
15 14 10 2 6 2 11 10 12 13 8 35 21 16 6 4 11 26 57 38 46 62 67 62 56 52 48 45 42 38 36 33 28 20 14 11 9 9 11 16 18 17 20 21 21 22 19 11 7
10 16 10 7 7 12 10 10 15 6 36 7 8 8 6 12 15 60 43 46 51 60 65 62 57 53 49 46 43 40 36 32 24 17 14 12 10 10 12 16 17 18 20 21 22 21 20 20 16
10 9 4 7 17 13 12 7 3 9 9 13 19 10 8 8 32 37 52 46 53 59 63 62 58 55 51 48 46 42 39 33 22 18 15 12 12 13 14 15 16 15 16 17 18 17 16 14 14
15 5 2 6 14 11 10 15 20 7 10 15 18 11 6 23 19 36 45 44 49 60 62 60 58 56 53 49 47 44 39 33 24 19 15 13 14 15 16 15 14 12 12 12 13 14 13 13 10
7 4 2 12 11 9 12 35 12 8 10 17 13 21 15 33 23 36 39 43 43 58 64 61 57 55 53 50 47 45 39 32 26 22 18 16 14 15 16 12 10 8 8 8 8 10 11 11 11
7 7 9 7 9 9 16 17 14 18 11 13 29 12 11 34 32 33 40 42 46 56 62 63 59 54 53 51 47 43 39 34 29 25 21 18 15 14 14 12 10 8 6 4 4 6 8 10 10
5 6 5 10 7 14 7 13 15 24 15 16 28 15 11 42 42 40 43 41 44 57 58 62 61 58 56 52 48 44 40 35 30 29 24 20 17 16 14 11 10 9 6 2 1 4 8 11 12
6 2 8 9 9 13 5 5 7 8 15 18 20 12 16 50 48 52 51 46 48 58 59 61 62 61 57 54 50 46 41 37 34 31 26 23 21 18 15 13 12 11 7 3 5 11 17 21 21
9 8 14 9 5 9 13 7 8 6 8 10 19 23 27 56 58 64 65 62 58 61 62 61 62 60 57 56 53 48 46 43 38 33 29 26 23 20 18 15 17 16 10 12 15 21 26 28 26
11 12 8 10 13 10 10 8 8 6 9 20 29 34 51 62 64 66 68 65 65 62 61 62 61 59 59 60 56 51 48 45 41 36 32 29 28 26 25 26 26 25 21 19 24 27 29 28 29
6 23 25 9 10 9 8 10 10 15 11 18 27 39 59 70 70 71 69 67 66 66 62 59 58 62 62 59 57 53 51 47 44 40 36 34 30 28 27 32 33 25 22 29 32 32 32 29 23
12 9 20 20 20 20 20 20 13 27 36 15 27 48 66 73 70 69 65 64 63 66 62 59 55 57 64 60 57 54 52 48 44 42 38 35 31 32 30 26 28 27 29 33 36 35 31 24 23
6 13 21 22 23 18 9 10 11 33 43 35 24 52 68 72 72 72 77 73 71 64 64 61 57 57 57 57 54 52 48 46 46 43 40 37 34 32 29 29 28 30 33 36 38 34 25 27 31
12 12 12 17 16 13 11 16 22 63 29 39 53 47 64 71 73 75 75 78 73 71 62 66 60 53 53 53 50 46 43 44 43 43 43 38 37 36 37 35 33 34 37 37 33 29 30 34 32
8 3 8 7 13 13 20 36 15 38 47 59 53 67 59 79 82 77 78 81 79 74 72 69 65 60 55 60 57 54 53 51 43 43 42 40 36 35 35 35 36 37 36 30 29 32 34 33 29
8 10 14 12 15 5 12 12 9 28 28 48 64 66 64 70 77 86 84 81 78 79 77 77 76 68 60 61 65 62 58 59 54 46 41 40 39 37 36 37 36 34 32 31 32 33 31 28 27
12 12 11 11 2 6 15 19 28 30 15 28 38 51 64 74 79 82 81 79 79 80 79 80 84 78 67 69 69 66 62 64 57 49 47 43 41 38 37 37 35 33 33 31 31 30 29 27 25
11 12 17 8 9 8 16 28 27 43 39 34 42 45 57 70 70 73 73 80 81 84 85 87 94 90 78 77 77 73 71 67 68 53 46 46 43 39 38 36 34 31 31 31 29 26 26 27 26
19 26 29 18 14 9 17 39 29 24 33 47 54 62 57 59 63 66 74 82 84 84 79 82 90 96 86 79 77 75 72 66 68 59 48 45 43 40 38 35 33 31 30 28 26 25 23 25 24
24 17 16 24 13 15 7 45 30 21 36 48 66 70 73 72 68 63 65 80 86 88 89 88 83 93 91 84 83 77 83 72 69 59 48 46 46 43 38 35 33 31 28 25 24 24 24 22 21
16 11 15 19 4 9 4 23 16 4 28 22 47 60 83 83 89 89 78 74 84 90 90 86 87 90 95 92 90 77 78 85 70 59 55 47 47 43 38 36 33 29 27 24 23 24 22 19 18
11 15 10 5 9 6 17 5 11 5 20 19 19 55 74 92 100 96 87 81 81 80 82 85 87 93 98 97 89 81 76 80 68 59 56 49 47 43 39 36 32 28 25 23 21 20 18 17 15
9 12 20 7 6 10 33 19 46 15 17 14 14 54 67 74 75 83 91 88 89 85 80 82 86 92 96 99 92 90 80 79 67 65 59 52 48 44 40 35 32 28 24 21 18 16 15 15 16
15 9 8 6 8 14 5 18 41 16 27 22 29 52 66 55 47 62 70 79 88 92 90 86 89 95 98 99 94 88 78 74 68 67 55 57 52 45 40 35 31 26 23 19 16 14 13 13 15
24 6 7 13 7 10 6 13 10 14 40 55 50 55 55 61 57 48 59 66 77 88 96 92 92 95 98 93 91 81 77 73 66 63 55 52 43 41 39 36 31 25 20 16 15 13 13 13 14
9 10 8 11 16 13 10 12 6 34 43 52 62 71 70 66 52 46 44 56 66 78 92 95 93 91 93 90 84 80 75 72 61 59 48 47 45 43 40 34 28 22 18 16 14 12 12 13 15
5 20 12 6 8 9 7 8 6 28 38 43 44 59 75 69 49 33 29 35 46 61 74 78 77 79 83 81 76 72 71 69 60 57 55 50 46 44 38 31 26 21 18 14 12 11 11 12 13
28 9 10 11 10 9 6 5 7 14 25 35 40 55 65 76 55 30 15 17 28 40 52 62 67 69 72 74 73 71 72 66 59 55 54 49 46 41 36 30 25 20 16 12 10 9 9 10 12
7 15 8 7 16 14 18 16 10 19 25 31 51 58 72 74 57 41 27 19 23 34 45 54 58 62 66 67 68 68 66 62 60 57 53 48 44 40 34 29 25 20 15 11 9 8 7 10 13
Wind_Direction_850mb
277 255 236 251 44 66 263 259 257 277 255 141 151 158 168 123 158 201 149 158 170 169 172 172 173 173 171 169 167 166 166 166 165 164 161 150 135 125 115 127 124 99 86 82 79 90 139 146 155
274 220 191 163 113 147 264 248 245 226 152 123 100 102 97 146 139 146 150 159 170 171 173 173 176 176 174 172 171 170 170 171 171 167 161 145 138 128 108 106 111 83 80 73 71 73 83 108 138
241 187 158 147 177 193 228 226 246 221 163 169 101 84 115 159 157 154 161 155 169 175 176 176 177 178 177 175 174 174 175 174 173 170 165 155 147 138 124 113 101 84 76 71 68 67 67 66 66
180 177 112 123 231 253 215 252 222 153 190 206 146 91 123 171 158 160 161 161 170 177 178 179 181 180 181 180 179 179 178 180 179 178 172 162 150 147 135 122 110 101 90 80 71 66 63 61 55
183 170 129 232 247 254 251 271 188 240 180 161 158 179 148 161 161 166 169 168 173 178 179 182 185 183 183 183 182 181 183 183 183 184 179 169 155 155 150 143 137 126 102 81 70 67 62 52 46
165 103 93 233 242 255 251 243 222 215 211 149 124 141 146 169 174 168 173 172 178 180 180 183 187 186 185 185 185 186 185 187 187 188 184 174 168 165 165 157 151 130 104 87 66 51 43 38 33
138 109 228 251 259 268 228 226 188 197 201 206 155 133 181 186 182 179 174 176 179 185 184 184 186 186 187 188 189 190 189 189 192 192 188 182 180 170 172 170 165 159 146 109 55 28 9 359 356
213 104 262 244 220 262 267 188 204 179 208 172 164 172 197 185 178 180 176 176 181 186 190 189 188 187 188 191 193 194 193 195 197 196 194 188 186 178 180 183 180 184 184 192 308 350 343 325 314
165 41 248 253 172 255 296 214 202 187 170 181 195 189 204 186 177 178 177 178 182 189 193 193 191 190 192 191 191 191 195 199 199 201 199 197 194 191 189 192 198 201 206 238 291 314 315 308 299
178 182 226 224 234 271 303 286 201 183 169 208 196 197 179 186 181 182 183 184 186 190 193 196 196 196 193 193 194 196 198 201 205 205 205 203 202 203 204 205 199 210 236 279 285 296 302 300 291
197 219 216 264 261 272 285 297 305 183 244 217 197 187 177 185 187 191 191 195 193 190 191 193 199 201 199 199 198 201 203 206 206 208 208 208 211 216 220 216 210 216 232 260 278 289 291 290 290
230 251 243 269 267 282 272 293 298 228 236 250 226 201 186 188 194 197 199 199 199 197 197 197 198 204 205 206 206 206 207 209 210 211 212 214 219 228 231 217 217 230 247 272 283 284 288 290 289
218 254 266 259 272 261 271 265 256 269 250 262 211 193 193 193 200 205 208 206 204 202 201 203 200 208 210 209 211 212 212 211 213 214 217 219 227 229 229 217 223 237 259 271 277 281 283 277 282
289 274 268 277 268 257 239 257 193 255 253 234 203 202 199 201 204 206 209 209 209 208 207 204 204 209 212 212 214 216 215 216 215 216 219 224 226 222 222 237 243 255 263 270 276 277 271 279 287
289 297 295 237 239 233 215 273 225 249 239 228 226 218 214 215 211 214 215 213 213 212 212 209 209 207 209 213 214 211 217 217 221 223 221 223 217 222 230 240 247 256 265 269 268 266 275 284 287
312 243 310 286 192 235 160 260 253 256 240 243 236 231 226 222 221 220 220 218 216 216 214 212 212 212 209 214 213 217 216 220 223 226 224 219 218 226 236 241 251 259 261 257 257 269 281 286 287
343 267 242 302 190 121 203 278 253 255 230 239 245 240 235 232 229 225 222 220 221 218 219 213 215 218 214 213 215 216 218 222 216 222 219 215 222 228 234 244 249 252 251 253 264 277 280 281 286
242 250 260 254 345 197 246 247 274 262 261 255 261 254 240 234 231 228 223 221 222 224 222 221 220 220 217 213 212 216 217 218 213 213 217 220 225 231 239 242 244 245 250 259 271 277 279 283 288
324 282 268 315 2 302 258 271 257 273 275 267 265 256 247 237 235 229 225 223 223 224 225 224 220 219 216 211 211 212 215 216 214 206 212 221 225 233 238 244 244 244 252 263 268 270 277 284 292
287 290 289 266 253 228 274 272 261 261 260 252 256 255 253 247 241 235 228 226 224 224 222 221 221 221 217 214 213 216 217 221 205 203 211 230 230 234 239 240 241 248 255 258 262 267 273 280 287
292 270 278 262 281 242 303 283 261 244 246 248 254 257 254 247 246 244 238 228 226 226 227 224 220 217 216 212 211 217 210 208 200 205 212 226 230 235 236 237 242 248 251 254 261 268 273 279 287
292 296 283 295 291 258 177 283 235 254 251 227 247 242 247 247 249 252 247 233 225 226 226 226 219 216 215 214 213 216 214 206 204 216 216 226 228 232 232 237 241 242 246 250 259 270 276 281 286
239 289 244 318 302 2 235 278 276 134 255 253 251 248 248 252 248 247 243 235 227 222 222 221 218 214 215 213 217 224 218 212 211 209 216 220 224 228 229 233 234 234 238 248 257 266 276 283 284
319 333 288 181 176 231 244 200 276 254 260 252 248 258 264 262 260 255 251 243 229 223 219 217 217 215 214 213 215 216 220 213 210 216 211 221 222 224 225 225 225 228 236 245 252 262 271 280 290
33 318 296 242 207 242 265 182 248 302 326 323 318 309 298 293 285 265 251 240 231 221 217 215 214 213 212 213 213 214 215 216 217 215 219 223 219 220 220 219 221 226 232 240 248 256 265 278 284
297 270 279 312 315 294 28 213 233 13 12 2 354 333 324 314 300 282 258 245 234 223 215 214 213 212 210 210 215 216 213 212 213 218 222 215 218 217 215 216 218 221 226 233 243 254 266 274 281
331 286 290 279 250 258 210 260 301 12 15 3 3 5 344 336 327 295 273 247 233 222 213 212 212 211 210 213 216 213 211 212 211 212 213 210 209 210 211 213 214 215 220 229 243 257 273 285 295
299 333 307 238 275 265 286 297 2 14 5 359 358 357 355 349 338 322 279 250 233 219 211 210 212 212 209 211 212 211 206 205 206 204 207 207 206 205 207 208 208 210 216 226 239 253 267 283 299
321 342 307 304 262 288 272 252 255 48 16 5 348 348 355 1 343 336 309 248 222 212 208 208 208 207 205 206 207 206 202 199 199 206 205 203 200 201 202 202 203 205 210 217 230 247 268 289 306
347 38 38 30 321 297 280 283 64 40 7 351 340 348 353 5 356 337 320 285 242 224 216 211 208 205 205 203 202 200 197 197 200 199 196 196 196 197 197 197 197 198 200 205 218 239 270 302 319